Location: Krakow
(50.0830°N, 19.9170°E)
Time: 20:17:47
(UTC+01:00)

Altair - Pass Details

Date: 10 December 2023
Orbit: 1501 x 1682 km, 47.2° (Epoch: 03 March)

Event Time Altitude Azimuth Distance (km) Brightness Sun altitude
Rises 10:09:27 0° 273° (W) 4,797 9.9 14.7°
Reaches altitude 10° 10:12:36 10° 272° (W) 3,787 9.4 14.9°
Maximum altitude 10:22:06 73° 190° (S) 1,600 8.2 15.3°
Drops below altitude 10° 10:31:18 10° 108° (ESE) 3,666 10.0 15.7°
Sets 10:34:17 0° 107° (ESE) 4,638 10.5 15.9°
